Year,Month,Day,Hour,Minute,Value (Times are PST for temperature in C)
2015,07,19,00,00,24.20
2015,07,19,00,01,24.10
2015,07,19,00,02,24.10
2015,07,19,00,03,24.10
2015,07,19,00,04,24.10
2015,07,19,00,05,24.00
2015,07,19,00,06,24.00
2015,07,19,00,07,23.90
2015,07,19,00,08,23.90
2015,07,19,00,09,23.90
2015,07,19,00,10,23.90
2015,07,19,00,11,23.90
2015,07,19,00,12,23.80
2015,07,19,00,13,23.80
2015,07,19,00,14,23.80
2015,07,19,00,15,23.80
2015,07,19,00,16,23.70
2015,07,19,00,17,23.70
2015,07,19,00,18,23.70
2015,07,19,00,19,23.70
2015,07,19,00,20,23.70
2015,07,19,00,21,23.70
2015,07,19,00,22,23.70
2015,07,19,00,23,23.70
2015,07,19,00,24,23.70
2015,07,19,00,25,23.60
2015,07,19,00,26,23.60
2015,07,19,00,27,23.60
2015,07,19,00,28,23.60
2015,07,19,00,29,23.60
2015,07,19,00,30,23.60
2015,07,19,00,31,23.50
2015,07,19,00,32,23.50
2015,07,19,00,33,23.50
2015,07,19,00,34,23.40
2015,07,19,00,35,23.40
2015,07,19,00,36,23.40
2015,07,19,00,37,23.40
2015,07,19,00,38,23.40
2015,07,19,00,39,23.40
2015,07,19,00,40,23.40
2015,07,19,00,41,23.30
2015,07,19,00,42,23.30
2015,07,19,00,43,23.30
2015,07,19,00,44,23.30
2015,07,19,00,45,23.30
2015,07,19,00,46,23.30
2015,07,19,00,47,23.30
2015,07,19,00,48,23.20
2015,07,19,00,49,23.20
2015,07,19,00,50,23.20
2015,07,19,00,51,23.20
2015,07,19,00,52,23.20
2015,07,19,00,53,23.10
2015,07,19,00,54,23.10
2015,07,19,00,55,23.10
2015,07,19,00,56,23.10
2015,07,19,00,57,23.10
2015,07,19,00,58,23.10
2015,07,19,00,59,23.00
2015,07,19,01,00,23.00
2015,07,19,01,01,23.00
2015,07,19,01,02,23.00
2015,07,19,01,03,23.00
2015,07,19,01,04,23.00
2015,07,19,01,05,22.90
2015,07,19,01,06,22.90
2015,07,19,01,07,22.90
2015,07,19,01,08,22.90
2015,07,19,01,09,22.90
2015,07,19,01,10,22.90
2015,07,19,01,11,22.80
2015,07,19,01,12,22.80
2015,07,19,01,13,22.80
2015,07,19,01,14,22.80
2015,07,19,01,15,22.80
2015,07,19,01,16,22.80
2015,07,19,01,17,22.80
2015,07,19,01,18,22.80
2015,07,19,01,19,22.70
2015,07,19,01,20,22.80
2015,07,19,01,21,22.80
2015,07,19,01,22,22.80
2015,07,19,01,23,22.80
2015,07,19,01,24,22.70
2015,07,19,01,25,22.70
2015,07,19,01,26,22.70
2015,07,19,01,27,22.70
2015,07,19,01,28,22.70
2015,07,19,01,29,22.70
2015,07,19,01,30,22.70
2015,07,19,01,31,22.70
2015,07,19,01,32,22.70
2015,07,19,01,33,22.60
2015,07,19,01,34,22.60
2015,07,19,01,35,22.60
2015,07,19,01,36,22.60
2015,07,19,01,37,22.60
2015,07,19,01,38,22.60
2015,07,19,01,39,22.60
2015,07,19,01,40,22.60
2015,07,19,01,41,22.60
2015,07,19,01,42,22.50
2015,07,19,01,43,22.50
2015,07,19,01,44,22.50
2015,07,19,01,45,22.50
2015,07,19,01,46,22.40
2015,07,19,01,47,22.40
2015,07,19,01,48,22.40
2015,07,19,01,49,22.40
2015,07,19,01,50,22.40
2015,07,19,01,51,22.40
2015,07,19,01,52,22.40
2015,07,19,01,53,22.30
2015,07,19,01,54,22.30
2015,07,19,01,55,22.30
2015,07,19,01,56,22.30
2015,07,19,01,57,22.30
2015,07,19,01,58,22.30
2015,07,19,01,59,22.20
2015,07,19,02,00,22.20
2015,07,19,02,01,22.20
2015,07,19,02,02,22.20
2015,07,19,02,03,22.20
2015,07,19,02,04,22.20
2015,07,19,02,05,22.20
2015,07,19,02,06,22.20
2015,07,19,02,07,22.10
2015,07,19,02,08,22.10
2015,07,19,02,09,22.10
2015,07,19,02,10,22.10
2015,07,19,02,11,22.00
2015,07,19,02,12,22.00
2015,07,19,02,13,22.00
2015,07,19,02,14,21.90
2015,07,19,02,15,21.90
2015,07,19,02,16,21.90
2015,07,19,02,17,21.80
2015,07,19,02,18,21.80
2015,07,19,02,19,21.80
2015,07,19,02,20,21.80
2015,07,19,02,21,21.80
2015,07,19,02,22,21.70
2015,07,19,02,23,21.70
2015,07,19,02,24,21.70
2015,07,19,02,25,21.70
2015,07,19,02,26,21.70
2015,07,19,02,27,21.70
2015,07,19,02,28,21.70
2015,07,19,02,29,21.60
2015,07,19,02,30,21.60
2015,07,19,02,31,21.60
2015,07,19,02,32,21.60
2015,07,19,02,33,21.60
2015,07,19,02,34,21.60
2015,07,19,02,35,21.60
2015,07,19,02,36,21.60
2015,07,19,02,37,21.60
2015,07,19,02,38,21.60
2015,07,19,02,39,21.60
2015,07,19,02,40,21.60
2015,07,19,02,41,21.60
2015,07,19,02,42,21.60
2015,07,19,02,43,21.60
2015,07,19,02,44,21.50
2015,07,19,02,45,21.60
2015,07,19,02,46,21.60
2015,07,19,02,47,21.60
2015,07,19,02,48,21.60
2015,07,19,02,49,21.60
2015,07,19,02,50,21.60
2015,07,19,02,51,21.60
2015,07,19,02,52,21.60
2015,07,19,02,53,21.60
2015,07,19,02,54,21.60
2015,07,19,02,55,21.60
2015,07,19,02,56,21.60
2015,07,19,02,57,21.60
2015,07,19,02,58,21.60
2015,07,19,02,59,21.60
2015,07,19,03,00,21.60
2015,07,19,03,01,21.60
2015,07,19,03,02,21.60
2015,07,19,03,03,21.60
2015,07,19,03,04,21.60
2015,07,19,03,05,21.50
2015,07,19,03,06,21.50
2015,07,19,03,07,21.50
2015,07,19,03,08,21.50
2015,07,19,03,09,21.50
2015,07,19,03,10,21.50
2015,07,19,03,11,21.50
2015,07,19,03,12,21.50
2015,07,19,03,13,21.50
2015,07,19,03,14,21.40
2015,07,19,03,15,21.40
2015,07,19,03,16,21.40
2015,07,19,03,17,21.40
2015,07,19,03,18,21.40
2015,07,19,03,19,21.40
2015,07,19,03,20,21.40
2015,07,19,03,21,21.40
2015,07,19,03,22,21.40
2015,07,19,03,23,21.50
2015,07,19,03,24,21.50
2015,07,19,03,25,21.50
2015,07,19,03,26,21.50
2015,07,19,03,27,21.50
2015,07,19,03,28,21.50
2015,07,19,03,29,21.60
2015,07,19,03,30,21.60
2015,07,19,03,31,21.60
2015,07,19,03,32,21.60
2015,07,19,03,33,21.60
2015,07,19,03,34,21.60
2015,07,19,03,35,21.60
2015,07,19,03,36,21.60
2015,07,19,03,37,21.60
2015,07,19,03,38,21.60
2015,07,19,03,39,21.60
2015,07,19,03,40,21.50
2015,07,19,03,41,21.50
2015,07,19,03,42,21.50
2015,07,19,03,43,21.50
2015,07,19,03,44,21.40
2015,07,19,03,45,21.40
2015,07,19,03,46,21.40
2015,07,19,03,47,21.40
2015,07,19,03,48,21.40
2015,07,19,03,49,21.40
2015,07,19,03,50,21.30
2015,07,19,03,51,21.30
2015,07,19,03,52,21.30
2015,07,19,03,53,21.30
2015,07,19,03,54,21.30
2015,07,19,03,55,21.30
2015,07,19,03,56,21.30
2015,07,19,03,57,21.30
2015,07,19,03,58,21.30
2015,07,19,03,59,21.30
2015,07,19,04,00,21.30
2015,07,19,04,01,21.40
2015,07,19,04,02,21.40
2015,07,19,04,03,21.30
2015,07,19,04,04,21.30
2015,07,19,04,05,21.30
2015,07,19,04,06,21.30
2015,07,19,04,07,21.30
2015,07,19,04,08,21.20
2015,07,19,04,09,21.20
2015,07,19,04,10,21.20
2015,07,19,04,11,21.20
2015,07,19,04,12,21.20
2015,07,19,04,13,21.20
2015,07,19,04,14,21.10
2015,07,19,04,15,21.10
2015,07,19,04,16,21.10
2015,07,19,04,17,21.10
2015,07,19,04,18,21.10
2015,07,19,04,19,21.10
2015,07,19,04,20,21.10
2015,07,19,04,21,21.10
2015,07,19,04,22,21.00
2015,07,19,04,23,21.00
2015,07,19,04,24,20.90
2015,07,19,04,25,20.90
2015,07,19,04,26,20.80
2015,07,19,04,27,20.80
2015,07,19,04,28,20.80
2015,07,19,04,29,20.70
2015,07,19,04,30,20.70
2015,07,19,04,31,20.70
2015,07,19,04,32,20.70
2015,07,19,04,33,20.70
2015,07,19,04,34,20.70
2015,07,19,04,35,20.70
2015,07,19,04,36,20.60
2015,07,19,04,37,20.60
2015,07,19,04,38,20.60
2015,07,19,04,39,20.60
2015,07,19,04,40,20.60
2015,07,19,04,41,20.60
2015,07,19,04,42,20.60
2015,07,19,04,43,20.60
2015,07,19,04,44,20.70
2015,07,19,04,45,20.70
2015,07,19,04,46,20.70
2015,07,19,04,47,20.70
2015,07,19,04,48,20.70
2015,07,19,04,49,20.70
2015,07,19,04,50,20.70
2015,07,19,04,51,20.70
2015,07,19,04,52,20.70
2015,07,19,04,53,20.70
2015,07,19,04,54,20.70
2015,07,19,04,55,20.70
2015,07,19,04,56,20.70
2015,07,19,04,57,20.70
2015,07,19,04,58,20.70
2015,07,19,04,59,20.70
2015,07,19,05,00,20.70
2015,07,19,05,01,20.70
2015,07,19,05,02,20.70
2015,07,19,05,03,20.70
2015,07,19,05,04,20.70
2015,07,19,05,05,20.70
2015,07,19,05,06,20.70
2015,07,19,05,07,20.70
2015,07,19,05,08,20.70
2015,07,19,05,09,20.70
2015,07,19,05,10,20.70
2015,07,19,05,11,20.60
2015,07,19,05,12,20.60
2015,07,19,05,13,20.60
2015,07,19,05,14,20.60
2015,07,19,05,15,20.60
2015,07,19,05,16,20.60
2015,07,19,05,17,20.60
2015,07,19,05,18,20.60
2015,07,19,05,19,20.50
2015,07,19,05,20,20.50
2015,07,19,05,21,20.50
2015,07,19,05,22,20.40
2015,07,19,05,23,20.40
2015,07,19,05,24,20.40
2015,07,19,05,25,20.40
2015,07,19,05,26,20.40
2015,07,19,05,27,20.30
2015,07,19,05,28,20.30
2015,07,19,05,29,20.30
2015,07,19,05,30,20.30
2015,07,19,05,31,20.30
2015,07,19,05,32,20.30
2015,07,19,05,33,20.30
2015,07,19,05,34,20.30
2015,07,19,05,35,20.30
2015,07,19,05,36,20.30
2015,07,19,05,37,20.30
2015,07,19,05,38,20.30
2015,07,19,05,39,20.30
2015,07,19,05,40,20.30
2015,07,19,05,41,20.30
2015,07,19,05,42,20.30
2015,07,19,05,43,20.30
2015,07,19,05,44,20.30
2015,07,19,05,45,20.30
2015,07,19,05,46,20.30
2015,07,19,05,47,20.30
2015,07,19,05,48,20.30
2015,07,19,05,49,20.30
2015,07,19,05,50,20.30
2015,07,19,05,51,20.30
2015,07,19,05,52,20.30
2015,07,19,05,53,20.30
2015,07,19,05,54,20.30
2015,07,19,05,55,20.30
2015,07,19,05,56,20.30
2015,07,19,05,57,20.30
2015,07,19,05,58,20.30
2015,07,19,05,59,20.40
2015,07,19,06,00,20.40
2015,07,19,06,01,20.40
2015,07,19,06,02,20.40
2015,07,19,06,03,20.40
2015,07,19,06,04,20.40
2015,07,19,06,05,20.40
2015,07,19,06,06,20.40
2015,07,19,06,07,20.40
2015,07,19,06,08,20.40
2015,07,19,06,09,20.40
2015,07,19,06,10,20.40
2015,07,19,06,11,20.40
2015,07,19,06,12,20.40
2015,07,19,06,13,20.40
2015,07,19,06,14,20.40
2015,07,19,06,15,20.50
2015,07,19,06,16,20.50
2015,07,19,06,17,20.50
2015,07,19,06,18,20.50
2015,07,19,06,19,20.50
2015,07,19,06,20,20.60
2015,07,19,06,21,20.60
2015,07,19,06,22,20.60
2015,07,19,06,23,20.60
2015,07,19,06,24,20.60
2015,07,19,06,25,20.60
2015,07,19,06,26,20.70
2015,07,19,06,27,20.70
2015,07,19,06,28,20.70
2015,07,19,06,29,20.70
2015,07,19,06,30,20.70
2015,07,19,06,31,20.70
2015,07,19,06,32,20.80
2015,07,19,06,33,20.80
2015,07,19,06,34,20.80
2015,07,19,06,35,20.80
2015,07,19,06,36,20.80
2015,07,19,06,37,20.80
2015,07,19,06,38,20.80
2015,07,19,06,39,20.90
2015,07,19,06,40,20.90
2015,07,19,06,41,20.90
2015,07,19,06,42,20.90
2015,07,19,06,43,20.90
2015,07,19,06,44,20.90
2015,07,19,06,45,20.90
2015,07,19,06,46,20.90
2015,07,19,06,47,20.90
2015,07,19,06,48,20.90
2015,07,19,06,49,20.90
2015,07,19,06,50,20.90
2015,07,19,06,51,20.90
2015,07,19,06,52,20.90
2015,07,19,06,53,20.90
2015,07,19,06,54,20.90
2015,07,19,06,55,20.90
2015,07,19,06,56,20.90
2015,07,19,06,57,20.90
2015,07,19,06,58,20.90
2015,07,19,06,59,20.90
2015,07,19,07,00,20.90
2015,07,19,07,01,20.90
2015,07,19,07,02,20.90
2015,07,19,07,03,21.00
2015,07,19,07,04,21.00
2015,07,19,07,05,21.00
2015,07,19,07,06,21.00
2015,07,19,07,07,21.00
2015,07,19,07,08,21.10
2015,07,19,07,09,21.10
2015,07,19,07,10,21.10
2015,07,19,07,11,21.10
2015,07,19,07,12,21.10
2015,07,19,07,13,21.10
2015,07,19,07,14,21.20
2015,07,19,07,15,21.20
2015,07,19,07,16,21.10
2015,07,19,07,17,21.10
2015,07,19,07,18,21.10
2015,07,19,07,19,21.10
2015,07,19,07,20,21.10
2015,07,19,07,21,21.20
2015,07,19,07,22,21.20
2015,07,19,07,23,21.20
2015,07,19,07,24,21.20
2015,07,19,07,25,21.20
2015,07,19,07,26,21.20
2015,07,19,07,27,21.20
2015,07,19,07,28,21.20
2015,07,19,07,29,21.20
2015,07,19,07,30,21.30
2015,07,19,07,31,21.30
2015,07,19,07,32,21.30
2015,07,19,07,33,21.30
2015,07,19,07,34,21.30
2015,07,19,07,35,21.20
2015,07,19,07,36,21.20
2015,07,19,07,37,21.20
2015,07,19,07,38,21.20
2015,07,19,07,39,21.20
2015,07,19,07,40,21.20
2015,07,19,07,41,21.20
2015,07,19,07,42,21.20
2015,07,19,07,43,21.20
2015,07,19,07,44,21.20
2015,07,19,07,45,21.20
2015,07,19,07,46,21.30
2015,07,19,07,47,21.30
2015,07,19,07,48,21.20
2015,07,19,07,49,21.20
2015,07,19,07,50,21.20
2015,07,19,07,51,21.20
2015,07,19,07,52,21.10
2015,07,19,07,53,21.10
2015,07,19,07,54,21.10
2015,07,19,07,55,21.10
2015,07,19,07,56,21.00
2015,07,19,07,57,21.00
2015,07,19,07,58,21.00
2015,07,19,07,59,21.00
2015,07,19,08,00,21.00
2015,07,19,08,01,20.90
2015,07,19,08,02,20.90
2015,07,19,08,03,20.90
2015,07,19,08,04,20.90
2015,07,19,08,05,21.00
2015,07,19,08,06,21.00
2015,07,19,08,07,20.90
2015,07,19,08,08,20.90
2015,07,19,08,09,20.90
2015,07,19,08,10,20.90
2015,07,19,08,11,20.90
2015,07,19,08,12,20.90
2015,07,19,08,13,20.90
2015,07,19,08,14,20.90
2015,07,19,08,15,20.90
2015,07,19,08,16,20.90
2015,07,19,08,17,20.90
2015,07,19,08,18,20.90
2015,07,19,08,19,20.90
2015,07,19,08,20,21.00
2015,07,19,08,21,21.00
2015,07,19,08,22,21.00
2015,07,19,08,23,21.00
2015,07,19,08,24,21.00
2015,07,19,08,25,21.00
2015,07,19,08,26,21.10
2015,07,19,08,27,21.10
2015,07,19,08,28,21.10
2015,07,19,08,29,21.10
2015,07,19,08,30,21.10
2015,07,19,08,31,21.00
2015,07,19,08,32,21.00
2015,07,19,08,33,20.90
2015,07,19,08,34,20.90
2015,07,19,08,35,20.90
2015,07,19,08,36,20.90
2015,07,19,08,37,20.80
2015,07,19,08,38,20.80
2015,07,19,08,39,20.80
2015,07,19,08,40,20.80
2015,07,19,08,41,20.80
2015,07,19,08,42,20.90
2015,07,19,08,43,20.90
2015,07,19,08,44,20.90
2015,07,19,08,45,20.80
2015,07,19,08,46,20.80
2015,07,19,08,47,20.80
2015,07,19,08,48,20.80
2015,07,19,08,49,20.80
2015,07,19,08,50,20.80
2015,07,19,08,51,20.70
2015,07,19,08,52,20.70
2015,07,19,08,53,20.70
2015,07,19,08,54,20.70
2015,07,19,08,55,20.60
2015,07,19,08,56,20.60
2015,07,19,08,57,20.60
2015,07,19,08,58,20.60
2015,07,19,08,59,20.70
2015,07,19,09,00,20.70
2015,07,19,09,01,20.70
2015,07,19,09,02,20.70
2015,07,19,09,03,20.70
2015,07,19,09,04,20.80
2015,07,19,09,05,20.80
2015,07,19,09,06,20.80
2015,07,19,09,07,20.80
2015,07,19,09,08,20.80
2015,07,19,09,09,20.90
2015,07,19,09,10,20.90
2015,07,19,09,11,20.90
2015,07,19,09,12,20.90
2015,07,19,09,13,20.90
2015,07,19,09,14,21.00
2015,07,19,09,15,21.10
2015,07,19,09,16,21.00
2015,07,19,09,17,21.00
2015,07,19,09,18,20.90
2015,07,19,09,19,20.80
2015,07,19,09,20,20.80
2015,07,19,09,21,20.80
2015,07,19,09,22,20.70
2015,07,19,09,23,20.70
2015,07,19,09,24,20.70
2015,07,19,09,25,20.70
2015,07,19,09,26,20.80
2015,07,19,09,27,20.80
2015,07,19,09,28,20.90
2015,07,19,09,29,21.00
2015,07,19,09,30,21.10
2015,07,19,09,31,21.10
2015,07,19,09,32,21.00
2015,07,19,09,33,20.90
2015,07,19,09,34,20.80
2015,07,19,09,35,20.80
2015,07,19,09,36,20.80
2015,07,19,09,37,20.80
2015,07,19,09,38,20.90
2015,07,19,09,39,20.90
2015,07,19,09,40,20.90
2015,07,19,09,41,20.90
2015,07,19,09,42,20.90
2015,07,19,09,43,20.90
2015,07,19,09,44,21.00
2015,07,19,09,45,21.00
2015,07,19,09,46,21.00
2015,07,19,09,47,21.00
2015,07,19,09,48,20.90
2015,07,19,09,49,20.90
2015,07,19,09,50,21.00
2015,07,19,09,51,21.00
2015,07,19,09,52,21.10
2015,07,19,09,53,21.20
2015,07,19,09,54,21.30
2015,07,19,09,55,21.30
2015,07,19,09,56,21.30
2015,07,19,09,57,21.40
2015,07,19,09,58,21.40
2015,07,19,09,59,21.50
2015,07,19,10,00,21.50
2015,07,19,10,01,21.60
2015,07,19,10,02,21.60
2015,07,19,10,03,21.70
2015,07,19,10,04,21.70
2015,07,19,10,05,21.80
2015,07,19,10,06,21.80
2015,07,19,10,07,21.80
2015,07,19,10,08,21.80
2015,07,19,10,09,21.80
2015,07,19,10,10,21.80
2015,07,19,10,11,21.60
2015,07,19,10,12,21.50
2015,07,19,10,13,21.40
2015,07,19,10,14,21.20
2015,07,19,10,15,21.10
2015,07,19,10,16,21.00
2015,07,19,10,17,21.00
2015,07,19,10,18,21.00
2015,07,19,10,19,21.00
2015,07,19,10,20,21.10
2015,07,19,10,21,21.30
2015,07,19,10,22,21.50
2015,07,19,10,23,21.60
2015,07,19,10,24,21.70
2015,07,19,10,25,21.80
2015,07,19,10,26,21.70
2015,07,19,10,27,21.70
2015,07,19,10,28,21.70
2015,07,19,10,29,21.70
2015,07,19,10,30,21.70
2015,07,19,10,31,21.70
2015,07,19,10,32,21.70
2015,07,19,10,33,21.70
2015,07,19,10,34,21.70
2015,07,19,10,35,21.60
2015,07,19,10,36,21.60
2015,07,19,10,37,21.60
2015,07,19,10,38,21.50
2015,07,19,10,39,21.40
2015,07,19,10,40,21.40
2015,07,19,10,41,21.40
2015,07,19,10,42,21.40
2015,07,19,10,43,21.30
2015,07,19,10,44,21.20
2015,07,19,10,45,21.20
2015,07,19,10,46,21.20
2015,07,19,10,47,21.30
2015,07,19,10,48,21.30
2015,07,19,10,49,21.40
2015,07,19,10,50,21.40
2015,07,19,10,51,21.40
2015,07,19,10,52,21.50
2015,07,19,10,53,21.60
2015,07,19,10,54,21.70
2015,07,19,10,55,21.70
2015,07,19,10,56,21.70
2015,07,19,10,57,21.60
2015,07,19,10,58,21.60
2015,07,19,10,59,21.60
2015,07,19,11,00,21.50
2015,07,19,11,01,21.60
2015,07,19,11,02,21.60
2015,07,19,11,03,21.70
2015,07,19,11,04,21.80
2015,07,19,11,05,21.80
2015,07,19,11,06,21.80
2015,07,19,11,07,21.80
2015,07,19,11,08,21.80
2015,07,19,11,09,21.70
2015,07,19,11,10,21.60
2015,07,19,11,11,21.50
2015,07,19,11,12,21.50
2015,07,19,11,13,21.60
2015,07,19,11,14,21.60
2015,07,19,11,15,21.70
2015,07,19,11,16,21.80
2015,07,19,11,17,21.90
2015,07,19,11,18,22.00
2015,07,19,11,19,22.00
2015,07,19,11,20,22.10
2015,07,19,11,21,22.10
2015,07,19,11,22,22.20
2015,07,19,11,23,22.20
2015,07,19,11,24,22.30
2015,07,19,11,25,22.30
2015,07,19,11,26,22.30
2015,07,19,11,27,22.20
2015,07,19,11,28,22.10
2015,07,19,11,29,22.10
2015,07,19,11,30,22.10
2015,07,19,11,31,22.10
2015,07,19,11,32,22.10
2015,07,19,11,33,22.10
2015,07,19,11,34,22.20
2015,07,19,11,35,22.20
2015,07,19,11,36,22.30
2015,07,19,11,37,22.40
2015,07,19,11,38,22.40
2015,07,19,11,39,22.50
2015,07,19,11,40,22.40
2015,07,19,11,41,22.50
2015,07,19,11,42,22.60
2015,07,19,11,43,22.60
2015,07,19,11,44,22.60
2015,07,19,11,45,22.60
2015,07,19,11,46,22.50
2015,07,19,11,47,22.50
2015,07,19,11,48,22.40
2015,07,19,11,49,22.40
2015,07,19,11,50,22.40
2015,07,19,11,51,22.30
2015,07,19,11,52,22.30
2015,07,19,11,53,22.30
2015,07,19,11,54,22.30
2015,07,19,11,55,22.30
2015,07,19,11,56,22.40
2015,07,19,11,57,22.40
2015,07,19,11,58,22.40
2015,07,19,11,59,22.40
2015,07,19,12,00,22.40
2015,07,19,12,01,22.50
2015,07,19,12,02,22.60
2015,07,19,12,03,22.70
2015,07,19,12,04,22.80
2015,07,19,12,05,22.80
2015,07,19,12,06,22.80
2015,07,19,12,07,22.70
2015,07,19,12,08,22.70
2015,07,19,12,09,22.80
2015,07,19,12,10,22.70
2015,07,19,12,11,22.60
2015,07,19,12,12,22.60
2015,07,19,12,13,22.60
2015,07,19,12,14,22.60
2015,07,19,12,15,22.60
2015,07,19,12,16,22.60
2015,07,19,12,17,22.60
2015,07,19,12,18,22.60
2015,07,19,12,19,22.60
2015,07,19,12,20,22.60
2015,07,19,12,21,22.60
2015,07,19,12,22,22.50
2015,07,19,12,23,22.40
2015,07,19,12,24,22.30
2015,07,19,12,25,22.30
2015,07,19,12,26,22.30
2015,07,19,12,27,22.30
2015,07,19,12,28,22.30
2015,07,19,12,29,22.40
2015,07,19,12,30,22.40
2015,07,19,12,31,22.50
2015,07,19,12,32,22.50
2015,07,19,12,33,22.60
2015,07,19,12,34,22.60
2015,07,19,12,35,22.60
2015,07,19,12,36,22.70
2015,07,19,12,37,22.70
2015,07,19,12,38,22.70
2015,07,19,12,39,22.80
2015,07,19,12,40,22.80
2015,07,19,12,41,22.80
2015,07,19,12,42,22.80
2015,07,19,12,43,22.90
2015,07,19,12,44,22.90
2015,07,19,12,45,22.90
2015,07,19,12,46,22.90
2015,07,19,12,47,22.90
2015,07,19,12,48,22.90
2015,07,19,12,49,22.90
2015,07,19,12,50,22.90
2015,07,19,12,51,22.90
2015,07,19,12,52,22.90
2015,07,19,12,53,22.90
2015,07,19,12,54,22.90
2015,07,19,12,55,22.80
2015,07,19,12,56,22.80
2015,07,19,12,57,22.80
2015,07,19,12,58,22.80
2015,07,19,12,59,22.90
2015,07,19,13,00,22.90
2015,07,19,13,01,22.90
2015,07,19,13,02,22.90
2015,07,19,13,03,23.00
2015,07,19,13,04,23.10
2015,07,19,13,05,23.10
2015,07,19,13,06,23.10
2015,07,19,13,07,23.10
2015,07,19,13,08,23.00
2015,07,19,13,09,22.90
2015,07,19,13,10,22.90
2015,07,19,13,11,23.00
2015,07,19,13,12,23.10
2015,07,19,13,13,23.20
2015,07,19,13,14,23.20
2015,07,19,13,15,23.30
2015,07,19,13,16,23.30
2015,07,19,13,17,23.30
2015,07,19,13,18,23.30
2015,07,19,13,19,23.30
2015,07,19,13,20,23.30
2015,07,19,13,21,23.30
2015,07,19,13,22,23.30
2015,07,19,13,23,23.30
2015,07,19,13,24,23.30
2015,07,19,13,25,23.40
2015,07,19,13,26,23.40
2015,07,19,13,27,23.40
2015,07,19,13,28,23.40
2015,07,19,13,29,23.40
2015,07,19,13,30,23.40
2015,07,19,13,31,23.50
2015,07,19,13,32,23.60
2015,07,19,13,33,23.60
2015,07,19,13,34,23.60
2015,07,19,13,35,23.70
2015,07,19,13,36,23.70
2015,07,19,13,37,23.80
2015,07,19,13,38,23.80
2015,07,19,13,39,23.80
2015,07,19,13,40,23.80
2015,07,19,13,41,23.90
2015,07,19,13,42,24.00
2015,07,19,13,43,24.10
2015,07,19,13,44,24.20
2015,07,19,13,45,24.30
2015,07,19,13,46,24.30
2015,07,19,13,47,24.30
2015,07,19,13,48,24.30
2015,07,19,13,49,24.20
2015,07,19,13,50,24.20
2015,07,19,13,51,24.20
2015,07,19,13,52,24.30
2015,07,19,13,53,24.30
2015,07,19,13,54,24.30
2015,07,19,13,55,24.30
2015,07,19,13,56,24.30
2015,07,19,13,57,24.30
2015,07,19,13,58,24.30
2015,07,19,13,59,24.30
2015,07,19,14,00,24.30
2015,07,19,14,01,24.40
2015,07,19,14,02,24.50
2015,07,19,14,03,24.50
2015,07,19,14,04,24.60
2015,07,19,14,05,24.70
2015,07,19,14,06,24.80
2015,07,19,14,07,24.80
2015,07,19,14,08,24.70
2015,07,19,14,09,24.70
2015,07,19,14,10,24.70
2015,07,19,14,11,24.70
2015,07,19,14,12,24.70
2015,07,19,14,13,24.70
2015,07,19,14,14,24.80
2015,07,19,14,15,24.80
2015,07,19,14,16,24.90
2015,07,19,14,17,24.90
2015,07,19,14,18,24.90
2015,07,19,14,19,24.80
2015,07,19,14,20,24.80
2015,07,19,14,21,24.90
2015,07,19,14,22,24.90
2015,07,19,14,23,24.90
2015,07,19,14,24,24.90
2015,07,19,14,25,24.90
2015,07,19,14,26,24.90
2015,07,19,14,27,24.90
2015,07,19,14,28,24.90
2015,07,19,14,29,24.90
2015,07,19,14,30,24.90
2015,07,19,14,31,24.90
2015,07,19,14,32,24.90
2015,07,19,14,33,24.90
2015,07,19,14,34,24.90
2015,07,19,14,35,24.90
2015,07,19,14,36,24.90
2015,07,19,14,37,24.90
2015,07,19,14,38,24.90
2015,07,19,14,39,25.00
2015,07,19,14,40,25.00
2015,07,19,14,41,24.90
2015,07,19,14,42,24.90
2015,07,19,14,43,24.90
2015,07,19,14,44,24.90
2015,07,19,14,45,24.90
2015,07,19,14,46,24.80
2015,07,19,14,47,24.80
2015,07,19,14,48,24.80
2015,07,19,14,49,24.80
2015,07,19,14,50,24.80
2015,07,19,14,51,24.80
2015,07,19,14,52,24.90
2015,07,19,14,53,24.90
2015,07,19,14,54,24.90
2015,07,19,14,55,24.80
2015,07,19,14,56,24.80
2015,07,19,14,57,24.80
2015,07,19,14,58,24.90
2015,07,19,14,59,25.00
2015,07,19,15,00,25.10
2015,07,19,15,01,25.30
2015,07,19,15,02,25.30
2015,07,19,15,03,25.30
2015,07,19,15,04,25.30
2015,07,19,15,05,25.30
2015,07,19,15,06,25.30
2015,07,19,15,07,25.20
2015,07,19,15,08,25.30
2015,07,19,15,09,25.40
2015,07,19,15,10,25.40
2015,07,19,15,11,25.40
2015,07,19,15,12,25.50
2015,07,19,15,13,25.60
2015,07,19,15,14,25.70
2015,07,19,15,15,25.80
2015,07,19,15,16,25.80
2015,07,19,15,17,25.90
2015,07,19,15,18,25.90
2015,07,19,15,19,25.90
2015,07,19,15,20,25.90
2015,07,19,15,21,25.90
2015,07,19,15,22,25.90
2015,07,19,15,23,25.80
2015,07,19,15,24,25.70
2015,07,19,15,25,25.70
2015,07,19,15,26,25.80
2015,07,19,15,27,25.90
2015,07,19,15,28,25.90
2015,07,19,15,29,25.90
2015,07,19,15,30,25.80
2015,07,19,15,31,25.80
2015,07,19,15,32,25.80
2015,07,19,15,33,25.80
2015,07,19,15,34,25.80
2015,07,19,15,35,25.90
2015,07,19,15,36,25.90
2015,07,19,15,37,25.90
2015,07,19,15,38,25.80
2015,07,19,15,39,25.80
2015,07,19,15,40,25.90
2015,07,19,15,41,25.90
2015,07,19,15,42,25.90
2015,07,19,15,43,25.90
2015,07,19,15,44,25.90
2015,07,19,15,45,26.00
2015,07,19,15,46,26.00
2015,07,19,15,47,26.20
2015,07,19,15,48,26.30
2015,07,19,15,49,26.30
2015,07,19,15,50,26.30
2015,07,19,15,51,26.30
2015,07,19,15,52,26.30
2015,07,19,15,53,26.20
2015,07,19,15,54,26.20
2015,07,19,15,55,26.20
2015,07,19,15,56,26.10
2015,07,19,15,57,26.20
2015,07,19,15,58,26.20
2015,07,19,15,59,26.20
2015,07,19,16,00,26.20
2015,07,19,16,01,26.20
2015,07,19,16,02,26.20
2015,07,19,16,03,26.20
2015,07,19,16,04,26.30
2015,07,19,16,05,26.30
2015,07,19,16,06,26.40
2015,07,19,16,07,26.50
2015,07,19,16,08,26.60
2015,07,19,16,09,26.60
2015,07,19,16,10,26.60
2015,07,19,16,11,26.60
2015,07,19,16,12,26.60
2015,07,19,16,13,26.60
2015,07,19,16,14,26.60
2015,07,19,16,15,26.60
2015,07,19,16,16,26.60
2015,07,19,16,17,26.60
2015,07,19,16,18,26.70
2015,07,19,16,19,26.70
2015,07,19,16,20,26.70
2015,07,19,16,21,26.70
2015,07,19,16,22,26.60
2015,07,19,16,23,26.60
2015,07,19,16,24,26.40
2015,07,19,16,25,26.30
2015,07,19,16,26,26.20
2015,07,19,16,27,26.20
2015,07,19,16,28,26.20
2015,07,19,16,29,26.20
2015,07,19,16,30,26.30
2015,07,19,16,31,26.30
2015,07,19,16,32,26.40
2015,07,19,16,33,26.40
2015,07,19,16,34,26.40
2015,07,19,16,35,26.40
2015,07,19,16,36,26.40
2015,07,19,16,37,26.40
2015,07,19,16,38,26.40
2015,07,19,16,39,26.30
2015,07,19,16,40,26.30
2015,07,19,16,41,26.30
2015,07,19,16,42,26.30
2015,07,19,16,43,26.30
2015,07,19,16,44,26.30
2015,07,19,16,45,26.30
2015,07,19,16,46,26.30
2015,07,19,16,47,26.30
2015,07,19,16,48,26.20
2015,07,19,16,49,26.30
2015,07,19,16,50,26.30
2015,07,19,16,51,26.30
2015,07,19,16,52,26.30
2015,07,19,16,53,26.50
2015,07,19,16,54,26.50
2015,07,19,16,55,26.50
2015,07,19,16,56,26.50
2015,07,19,16,57,26.50
2015,07,19,16,58,26.60
2015,07,19,16,59,26.70
2015,07,19,17,00,26.80
2015,07,19,17,01,26.90
2015,07,19,17,02,26.90
2015,07,19,17,03,27.00
2015,07,19,17,04,27.00
2015,07,19,17,05,27.00
2015,07,19,17,06,27.10
2015,07,19,17,07,27.10
2015,07,19,17,08,27.20
2015,07,19,17,09,27.20
2015,07,19,17,10,27.20
2015,07,19,17,11,27.20
2015,07,19,17,12,27.20
2015,07,19,17,13,27.20
2015,07,19,17,14,27.20
2015,07,19,17,15,27.10
2015,07,19,17,16,27.10
2015,07,19,17,17,27.10
2015,07,19,17,18,27.10
2015,07,19,17,19,27.10